Weather History for Key West NAF, FL

Change the Weather History Date:

Thursday, December 8, 2011

  Actual Average Record
Temperature  
Mean Temperature 66 °F -  
Max Temperature 69 °F 77 °F 85 °F (1978)
Min Temperature 64 °F 68 °F 55 °F (1997)
Cooling Degree Days 2    
Growing Degree Days 16 (Base 50)    
Moisture  
Dew Point 57 °F    
Average Humidity 70    
Maximum Humidity 83    
Minimum Humidity 60    
Precipitation  
Precipitation 0.00 in - - ()
Sea Level Pressure  
Sea Level Pressure 30.09 in    
Wind  
Wind Speed 16 mph (North)    
Max Wind Speed 22 mph    
Max Gust Speed 31 mph    
Visibility 10 miles    
Events      
Averages and records for this station are not official NWS values.
T = Trace of Precipitation, MM = Missing Value Source: NWS Daily Summary

Daily Weather History Graph

Daily Weather History Graph

Search for Another Location

Airport:

Trip Planner

Search our weather history database for the weather conditions in past years. The results will help you decide how hot, cold, wet, or windy it might be!

Date:

Astronomy

Dec. 08, 2011 Rise Set
Actual Time 6:58 AM EST 5:38 PM EST
Civil Twilight 6:33 AM EST 6:03 PM EST
Nautical Twilight 6:05 AM EST 6:31 PM EST
Astronomical Twilight 5:37 AM EST 6:59 PM EST
Moon 4:15 PM EST (12/8) 5:12 AM EST (12/8)
Length of Visible Light 11h 29m
Length of Day
10h 39m
Waxing Gibbous, 97% of the Moon is Illuminated
Dec 8
Waxing Gibbous
Dec 10
Full
Dec 17
Last Quarter
Dec 24
New
Jan 1
First Quarter

Hourly Weather History & Observations

Time (EST) Temp. Dew Point Humidity Pressure Visibility Wind Dir Wind Speed Gust Speed Precip Events Conditions
12:53 AM - - N/A% 30.05 in 9.0 mi North 20.7 mph 31.1 mph N/A   Overcast
1:53 AM - - N/A% 30.05 in 10.0 mi North 21.9 mph 28.8 mph N/A   Overcast
2:06 AM - - N/A% 30.05 in 10.0 mi North 19.6 mph 29.9 mph N/A   Overcast
2:26 AM - - N/A% 30.05 in 10.0 mi North 20.7 mph 27.6 mph N/A   Overcast
2:53 AM - - N/A% 30.05 in 10.0 mi North 18.4 mph 26.5 mph N/A   Overcast
3:53 AM - - N/A% 30.06 in 10.0 mi North 17.3 mph 24.2 mph N/A   Overcast
4:53 AM - - N/A% 30.06 in 10.0 mi North 18.4 mph 24.2 mph N/A   Overcast
5:53 AM - - N/A% 30.08 in 10.0 mi North 16.1 mph 23.0 mph N/A   Overcast
6:53 AM 66.2 °F 60.8 °F 83% 30.10 in 10.0 mi North 16.1 mph 21.9 mph N/A   Overcast
7:53 AM 66.2 °F 60.8 °F 83% 30.13 in 10.0 mi North 10.4 mph - N/A   Overcast
8:53 AM 64.4 °F 59.0 °F 83% 30.14 in 10.0 mi North 13.8 mph - N/A   Overcast
9:53 AM 66.0 °F 55.9 °F 70% 30.15 in 10.0 mi North 12.7 mph - N/A   Overcast
10:53 AM 66.9 °F 55.0 °F 66% 30.16 in 10.0 mi North 12.7 mph - N/A   Overcast
11:53 AM 68.0 °F 55.0 °F 63% 30.14 in 10.0 mi North 11.5 mph - N/A   Overcast
12:18 PM 69.8 °F 55.4 °F 60% 30.13 in 10.0 mi NNW 11.5 mph - N/A   Scattered Clouds
12:53 PM 69.1 °F 55.0 °F 61% 30.11 in 10.0 mi North 10.4 mph - N/A   Partly Cloudy
1:53 PM 69.1 °F 55.9 °F 63% 30.09 in 10.0 mi NNW 12.7 mph - N/A   Partly Cloudy
2:53 PM 68.0 °F 55.9 °F 65% 30.07 in 10.0 mi NNW 10.4 mph - N/A   Scattered Clouds
3:53 PM 66.9 °F 55.9 °F 68% 30.06 in 10.0 mi NNW 10.4 mph - N/A   Partly Cloudy
4:53 PM 66.0 °F 55.0 °F 68% 30.08 in 10.0 mi North 10.4 mph - N/A   Mostly Cloudy
5:53 PM 66.0 °F 55.0 °F 68% 30.08 in 10.0 mi North 10.4 mph - N/A   Mostly Cloudy
6:53 PM 66.9 °F 55.9 °F 68% 30.09 in 10.0 mi NNW 12.7 mph - N/A   Overcast
7:53 PM 66.9 °F 57.0 °F 70% 30.11 in 10.0 mi North 10.4 mph - N/A   Overcast
8:53 PM 68.0 °F 57.9 °F 70% 30.12 in 10.0 mi North 8.1 mph - N/A   Overcast
9:53 PM 69.1 °F 59.0 °F 70% 30.12 in 10.0 mi North 11.5 mph - N/A   Overcast
10:53 PM 69.1 °F 61.0 °F 75% 30.10 in 10.0 mi North 9.2 mph - N/A   Overcast
11:53 PM 69.1 °F 61.0 °F 75% 30.09 in 10.0 mi North 6.9 mph - N/A   Overcast